This demonstration page uses our WeatherBlox Daily Observations layout. Learn more.

Left ArrowRight Arrow

Hourly Observations for October 19, 2019

Temp ( °F °C ) Dew Point ( °F °C ) Humidity (%) Winds ( mph kmh ) Pressure ( in mb ) Visibility ( mi km ) Precip ( " mm )
12:53 am 00:53 Clear 64 17.8 43 6.1 46 46 WNW 6 9 29.67 1005 10 16 0.00 0.00
1:53 am 01:53 Clear 63 17.2 43 6.1 48 48 NW 6 9 29.67 1005 10 16 0.00 0.00
2:53 am 02:53 Clear 58 14.4 43 6.1 58 58 NW 6 9 29.69 1006 10 16 0.00 0.00
3:53 am 03:53 Clear 57 13.9 43 6.1 60 60 WNW 6 9 29.70 1006 10 16 0.00 0.00
4:53 am 04:53 Clear 55 12.8 43 6.1 64 64 N 6 9 29.72 1006 10 16 0.00 0.00
5:53 am 05:53 Clear 52 11.1 42 5.6 69 69 NNW 5 7 29.74 1007 10 16 0.00 0.00
6:53 am 06:53 Clear 50 10 41 5 71 71 Calm 29.76 1008 10 16 0.00 0.00
7:53 am 07:53 Clear 49 9.4 41 5 74 74 NNE 6 9 29.81 1009 10 16 0.00 0.00
8:53 am 08:53 Sunny 55 12.8 41 5 59 59 N 9 15 29.82 1010 10 16 0.00 0.00
9:53 am 09:53 Sunny 63 17.2 38 3.3 40 40 NNE 15 24 29.84 1011 10 16 0.00 0.00
10:53 am 10:53 Sunny 69 20.6 37 2.8 31 31 NE 8 13 29.86 1011 10 16 0.00 0.00
11:53 am 11:53 Sunny 72 22.2 37 2.8 28 28 NNW 8 13 29.86 1011 10 16 0.00 0.00
12:53 pm 12:53 Sunny 75 23.9 35 1.7 23 23 NW 8 13 29.85 1011 10 16 0.00 0.00
1:53 pm 13:53 Sunny 77 25 34 1.1 21 21 N 6 9 29.82 1010 10 16 0.00 0.00
2:53 pm 14:53 Sunny 79 26.1 33 0.6 19 19 undefined N/A 29.79 1009 10 16 0.00 0.00
3:53 pm 15:53 Sunny 81 27.2 31 -0.6 16 16 NW 10 17 29.77 1008 10 16 0.00 0.00
4:53 pm 16:53 Sunny 80 26.7 26 -3.3 14 14 WNW 9 15 29.76 1008 10 16 0.00 0.00
5:53 pm 17:53 Sunny 80 26.7 27 -2.8 14 14 W 7 11 29.76 1008 10 16 0.00 0.00
6:53 pm 18:53 Sunny 77 25 28 -2.2 16 16 W 3 6 29.77 1008 10 16 0.00 0.00
7:53 pm 19:53 Clear 71 21.7 29 -1.7 21 21 NE 5 7 29.77 1008 10 16 0.00 0.00
8:53 pm 20:53 Clear 65 18.3 29 -1.7 26 26 S 3 6 29.78 1008 10 16 0.00 0.00
9:53 pm 21:53 Clear 64 17.8 29 -1.7 27 27 SSE 5 7 29.77 1008 10 16 0.00 0.00
10:53 pm 22:53 Clear 57 13.9 29 -1.7 34 34 Calm 29.78 1008 10 16 0.00 0.00
11:53 pm 23:53 Clear 57 13.9 29 -1.7 34 34 Calm 29.77 1008 10 16 0.00 0.00

Powered by AerisWeather